Hourly Data Report for September 16, 2017

All times are specified in Local Standard Time (LST). Add 1 hour to adjust for Daylight Saving Time where and when it is observed.

BAKER LAKE A
NUNAVUT

64°17'56.000" N
96°04'40.000" W
18.60 m
2300503
71926
YBK

Download Data

Hourly Data (September 2017)
Hourly Data Report for September 16, 2017
Temp Definition
°C
Dew Point Temp Definition
°C
Rel Hum Definition
%
Wind Dir Definition
10's deg

Wind Spd Definition
km/h
Visibility Definition
km
Stn Press Definition
kPa
Hmdx Definition


Wind Chill Definition


Weather Definition


TIME
00:00 Legend Double Dagger 8.0 6.9 93 31 22 24.1 101.20     Mostly Cloudy
01:00 Legend Double Dagger 7.6 6.7 94 31 30 24.1 101.29     LegendNANA
02:00 Legend Double Dagger 6.7 5.7 94 32 26 24.1 101.34     LegendNANA
03:00 Legend Double Dagger 6.4 5.8 96 29 18 24.1 101.39     Mainly Clear
04:00 Legend Double Dagger 6.8 6.3 97 30 27 24.1 101.44     LegendNANA
05:00 Legend Double Dagger 6.8 5.9 94 31 24 24.1 101.53     LegendNANA
06:00 Legend Double Dagger 6.5 5.8 95 31 24 32.2 101.58     Cloudy
07:00 Legend Double Dagger 6.7 6.0 96 32 20 32.2 101.66     LegendNANA
08:00 Legend Double Dagger 7.3 6.3 93 33 19 40.2 101.70     LegendNANA
09:00 Legend Double Dagger 8.2 6.7 90 32 14 40.2 101.76     Cloudy
10:00 Legend Double Dagger 8.8 6.8 87 33 14 40.2 101.76     LegendNANA
11:00 Legend Double Dagger 10.4 6.3 76 3 4 40.2 101.77     LegendNANA
12:00 Legend Double Dagger 10.3 5.8 74 29 5 40.2 101.81     Mostly Cloudy
13:00 Legend Double Dagger 11.0 6.0 71 14 8 40.2 101.84     LegendNANA
14:00 Legend Double Dagger 11.6 5.9 68 12 8 40.2 101.85     LegendNANA
15:00 Legend Double Dagger 11.8 5.1 63 15 13 40.2 101.86     Clear
16:00 Legend Double Dagger 11.2 4.6 64 14 13 40.2 101.84     LegendNANA
17:00 Legend Double Dagger 10.2 6.3 76 12 12 40.2 101.81     LegendNANA
18:00 Legend Double Dagger 8.5 5.8 83 13 9 40.2 101.79     Clear
19:00 Legend Double Dagger 7.1 5.2 87 17 5 40.2 101.79     LegendNANA
20:00 Legend Double Dagger 6.9 5.8 93 17 5 24.1 101.80     LegendNANA
21:00 Legend Double Dagger 5.0 3.9 93 18 9 24.1 101.78     Mainly Clear
22:00 Legend Double Dagger 5.2 4.0 92 21 8 24.1 101.78     LegendNANA
23:00 Legend Double Dagger 5.2 4.0 92 19 13 24.1 101.76     LegendNANA

Notes on Data Quality.

Legend

  • E = Estimated
  • M = Missing
  • NA = Not Available
  • ‡ = Partner data that is not subject to review by the National Climate Archives
Date modified: